West Bend, WI

10:56 PM CDT on September 28, 2016 (GMT -0500)
West Bend Municipal

Weather History for KETB - May, 2014

Change the Weather History Date:

Thursday, May 15, 2014

  Actual Average Record
Temperature  
Mean Temperature 43 °F -  
Max Temperature 51 °F 67 °F 88 °F (1991)
Min Temperature 35 °F 43 °F 30 °F (1959)
Degree Days  
Heating Degree Days 22    
Moisture  
Dew Point 32 °F    
Average Humidity 71    
Maximum Humidity 93    
Minimum Humidity 44    
Precipitation  
Precipitation 0.01 in - - ()
Sea Level Pressure  
Sea Level Pressure 30.00 in    
Wind  
Wind Speed 12 mph (North)    
Max Wind Speed 20 mph    
Max Gust Speed 30 mph    
Visibility 10 miles    
Events Rain    
Averages and records for this station are not official NWS values.
T = Trace of Precipitation, MM = Missing Value Source: NWS Daily Summary

Daily Weather History Graph

Daily Weather History Graph

Search for Another Location

Airport or City:

Trip Planner

Search our weather history database for the weather conditions in past years. The results will help you decide how hot, cold, wet, or windy it might be!

Date:

Astronomy

May. 15, 2014 Rise Set
Actual Time 5:28 AM CDT 8:10 PM CDT
Civil Twilight 4:55 AM CDT 8:43 PM CDT
Nautical Twilight 4:13 AM CDT 9:25 PM CDT
Astronomical Twilight 3:26 AM CDT 10:12 PM CDT
Moon 9:17 PM CDT (5/15) 6:15 AM CDT (5/15)
Length of Visible Light 15h 48m
Length of Day
14h 42m
Full, 99% of the Moon is Illuminated
May 15
Full
May 21
Last Quarter
May 28
New
Jun 5
First Quarter
Jun 12
Full

Hourly Weather History & Observations

Time (CDT) Temp. Windchill Dew Point Humidity Pressure Visibility Wind Dir Wind Speed Gust Speed Precip Events Conditions
12:10 AM 44.6 °F 39.2 °F 30.2 °F 57% 30.03 in 10.0 mi North 10.4 mph 19.6 mph N/A   Overcast
12:30 AM 44.6 °F 40.7 °F 32.0 °F 61% 30.04 in 10.0 mi NNE 6.9 mph - N/A   Overcast
12:50 AM 44.6 °F 38.4 °F 32.0 °F 61% 30.04 in 10.0 mi NNE 12.7 mph - N/A Rain Rain
1:10 AM 42.8 °F 35.4 °F 33.8 °F 70% 30.04 in 10.0 mi NNE 15.0 mph 18.4 mph N/A   Light Drizzle
1:30 AM 42.8 °F 34.5 °F 33.8 °F 70% 30.03 in 10.0 mi NNE 18.4 mph 24.2 mph N/A Rain Light Rain
1:50 AM 41.0 °F 32.2 °F 33.8 °F 76% 30.03 in 10.0 mi NNE 18.4 mph 25.3 mph N/A   Light Drizzle
2:10 AM 41.0 °F 32.8 °F 35.6 °F 81% 30.03 in 10.0 mi NNE 16.1 mph 24.2 mph N/A Rain Light Rain
2:50 AM 39.2 °F 29.6 °F 35.6 °F 87% 30.01 in 10.0 mi NNE 19.6 mph 29.9 mph N/A Rain Light Rain
3:30 AM 37.4 °F 28.5 °F 33.8 °F 87% 30.00 in 10.0 mi NNE 15.0 mph 23.0 mph N/A Rain Light Rain
3:50 AM 37.4 °F 30.3 °F 33.8 °F 87% 30.00 in 10.0 mi NNE 10.4 mph 24.2 mph N/A   Light Drizzle
4:10 AM 37.4 °F 28.9 °F 33.8 °F 87% 30.00 in 10.0 mi NNE 13.8 mph 21.9 mph N/A   Light Drizzle
4:30 AM 37.4 °F 28.9 °F 33.8 °F 87% 30.00 in 10.0 mi NNE 13.8 mph 20.7 mph N/A   Light Drizzle
4:50 AM 37.4 °F 28.5 °F 33.8 °F 87% 29.99 in 10.0 mi NNE 15.0 mph 23.0 mph N/A   Overcast
5:10 AM 37.4 °F 29.3 °F 33.8 °F 87% 29.99 in 10.0 mi NNE 12.7 mph 17.3 mph N/A   Overcast
5:30 AM 37.4 °F 28.9 °F 33.8 °F 87% 29.99 in 10.0 mi NNE 13.8 mph 20.7 mph N/A   Light Drizzle
5:50 AM 37.4 °F 28.9 °F 33.8 °F 87% 29.99 in 10.0 mi North 13.8 mph 20.7 mph N/A Rain Light Rain
6:10 AM 37.4 °F 30.8 °F 33.8 °F 87% 30.00 in 10.0 mi North 9.2 mph - N/A   Light Drizzle
6:30 AM 37.4 °F 29.3 °F 32.0 °F 81% 29.99 in 10.0 mi North 12.7 mph - N/A Rain Light Rain
6:50 AM 37.4 °F 29.8 °F 32.0 °F 81% 29.99 in 10.0 mi North 11.5 mph 16.1 mph N/A Rain Light Rain
7:10 AM 37.4 °F 30.8 °F 32.0 °F 81% 29.99 in 10.0 mi North 9.2 mph 16.1 mph N/A Rain Rain
7:30 AM 35.6 °F 27.5 °F 33.8 °F 93% 29.99 in 10.0 mi North 11.5 mph - N/A Rain Light Rain
7:50 AM 35.6 °F 29.2 °F 33.8 °F 93% 29.99 in 10.0 mi North 8.1 mph - N/A Rain Light Rain
8:10 AM 35.6 °F 28.0 °F 33.8 °F 93% 30.00 in 10.0 mi NNW 10.4 mph - 0.01 in Rain Light Rain
8:30 AM 37.4 °F 30.8 °F 33.8 °F 87% 29.99 in 10.0 mi NW 9.2 mph - 0.01 in Rain Light Rain
8:50 AM 37.4 °F 29.8 °F 33.8 °F 87% 29.98 in 10.0 mi NNW 11.5 mph 17.3 mph 0.01 in Rain Rain
9:10 AM 37.4 °F 30.8 °F 33.8 °F 87% 29.97 in 10.0 mi NNW 9.2 mph - N/A   Light Drizzle
9:50 AM 39.2 °F 33.6 °F 33.8 °F 81% 29.97 in 10.0 mi NNW 8.1 mph - N/A   Overcast
10:10 AM 41.0 °F 35.2 °F 33.8 °F 76% 29.97 in 10.0 mi NW 9.2 mph - N/A   Overcast
10:30 AM 41.0 °F 34.7 °F 33.8 °F 76% 29.97 in 10.0 mi NNW 10.4 mph 18.4 mph N/A   Overcast
10:50 AM 42.8 °F 35.8 °F 32.0 °F 66% 29.97 in 10.0 mi NNW 13.8 mph 17.3 mph N/A   Overcast
11:10 AM 42.8 °F 36.6 °F 32.0 °F 66% 29.97 in 10.0 mi NW 11.5 mph 20.7 mph N/A   Overcast
11:30 AM 44.6 °F 38.1 °F 33.8 °F 66% 29.97 in 10.0 mi NNW 13.8 mph 19.6 mph N/A   Overcast
11:50 AM 44.6 °F 38.1 °F 32.0 °F 61% 29.97 in 10.0 mi NNW 13.8 mph 20.7 mph N/A   Overcast
12:30 PM 48.2 °F - 32.0 °F 54% 29.96 in 10.0 mi NNW 17.3 mph 21.9 mph N/A   Mostly Cloudy
12:50 PM 50.0 °F - 32.0 °F 50% 29.95 in 10.0 mi NNW 16.1 mph 20.7 mph N/A   Mostly Cloudy
2:10 PM 50.0 °F - 32.0 °F 50% 29.96 in 10.0 mi NW 16.1 mph 21.9 mph N/A   Mostly Cloudy
2:30 PM 51.8 °F - 32.0 °F 47% 29.96 in 10.0 mi NW 11.5 mph 25.3 mph N/A   Mostly Cloudy
2:50 PM 51.8 °F - 32.0 °F 47% 29.96 in 10.0 mi NNW 15.0 mph 19.6 mph N/A   Mostly Cloudy
3:10 PM 51.8 °F - 32.0 °F 47% 29.96 in 10.0 mi NNW 11.5 mph 19.6 mph N/A   Mostly Cloudy
3:30 PM 50.0 °F - 30.2 °F 47% 29.97 in 10.0 mi WNW 13.8 mph 21.9 mph N/A   Mostly Cloudy
3:50 PM 50.0 °F - 30.2 °F 47% 29.97 in 10.0 mi NW 12.7 mph - N/A   Overcast
4:10 PM 51.8 °F - 32.0 °F 47% 29.97 in 10.0 mi NW 8.1 mph - N/A   Overcast
4:30 PM 51.8 °F - 30.2 °F 44% 29.97 in 10.0 mi NNW 11.5 mph - N/A   Overcast
4:50 PM 50.0 °F - 30.2 °F 47% 29.97 in 10.0 mi NW 10.4 mph - N/A   Overcast
5:10 PM 50.0 °F - 30.2 °F 47% 29.97 in 10.0 mi NW 12.7 mph - N/A   Overcast
5:30 PM 50.0 °F - 30.2 °F 47% 29.98 in 10.0 mi NW 11.5 mph - N/A   Overcast
5:50 PM 48.2 °F - 30.2 °F 50% 29.98 in 10.0 mi NW 5.8 mph - N/A   Overcast
6:10 PM 50.0 °F - 30.2 °F 47% 29.99 in 10.0 mi NNW 10.4 mph - N/A   Overcast
6:30 PM 48.2 °F - 30.2 °F 50% 29.99 in 10.0 mi NW 6.9 mph - N/A   Overcast
6:50 PM 48.2 °F - 30.2 °F 50% 30.00 in 10.0 mi NNW 4.6 mph - N/A   Overcast
7:10 PM 42.8 °F 38.6 °F 32.0 °F 66% 30.01 in 10.0 mi ESE 6.9 mph - N/A   Overcast
7:30 PM 42.8 °F 38.6 °F 32.0 °F 66% 30.03 in 10.0 mi SE 6.9 mph - N/A   Overcast
7:50 PM 42.8 °F 38.6 °F 32.0 °F 66% 30.03 in 10.0 mi ESE 6.9 mph - N/A   Overcast
8:10 PM 41.0 °F 37.1 °F 32.0 °F 70% 30.03 in 10.0 mi ESE 5.8 mph - N/A   Overcast
8:30 PM 41.0 °F 38.0 °F 32.0 °F 70% 30.04 in 10.0 mi East 4.6 mph - N/A   Overcast
8:50 PM 39.2 °F 35.0 °F 32.0 °F 75% 30.05 in 10.0 mi East 5.8 mph - N/A   Overcast
9:10 PM 39.2 °F 34.2 °F 32.0 °F 75% 30.06 in 10.0 mi East 6.9 mph - N/A   Overcast
9:30 PM 37.4 °F 30.3 °F 32.0 °F 81% 30.06 in 10.0 mi East 10.4 mph - N/A   Overcast
9:50 PM 37.4 °F 32.1 °F 32.0 °F 81% 30.06 in 10.0 mi East 6.9 mph - N/A   Overcast
10:10 PM 35.6 °F 29.2 °F 32.0 °F 87% 30.06 in 10.0 mi ESE 8.1 mph - N/A   Overcast
10:30 PM 35.6 °F 29.9 °F 32.0 °F 87% 30.07 in 10.0 mi East 6.9 mph - N/A   Overcast
10:50 PM 35.6 °F 29.9 °F 32.0 °F 87% 30.07 in 10.0 mi East 6.9 mph - N/A   Overcast
11:10 PM 35.6 °F 30.7 °F 32.0 °F 87% 30.06 in 10.0 mi ESE 5.8 mph - N/A   Overcast
11:30 PM 35.6 °F 31.7 °F 32.0 °F 87% 30.06 in 10.0 mi East 4.6 mph - N/A   Overcast
11:50 PM 35.6 °F 32.8 °F 32.0 °F 87% 30.06 in 10.0 mi ESE 3.5 mph - N/A   Overcast